ONEWEB-0017 (45132 NORAD) Tracking and Keplerian Element Data

This shows tracking and keplerian element data for the satellite.

Feedback or suggestion? Click here.




ElementValue
Catalog45132
NameONEWEB-0017
Epoch Orbit236
Epoch Day48.33171681
Epoch Year2020
RAAN160.9898
Inclination87.4053
Eccentricity0.0019349
Argument of Perigee267.7879
Mean Anonmoly92.1157
Mean Motion15.3459969
Decay Rate6.27E-05
L11 45132U 20008B 20048.33171681 .00006270 00000-0 18494-3 0 9993
L22 45132 87.4053 160.9898 0019349 267.7879 92.1157 15.34599690 2364

Live tracking and technical data element details for ONEWEB-0017 (NORAD 45132). ONEWEB-0017 can be tracked NOW for your location showing map with azimuth and elevation plus other details from your city location.

Track the satellite on the map from your city or location and see movement details for azimuth, elevation, latitude, longitude, range, height, and movement on the map or in text.







IsCatalogInMostPopularTable: catalog: 45132, numindb: -1

Insert: records affected: 1


GetName: 45132 ONEWEB-0017

Hit Count: inserted at: Tue, 18 Feb 2020 00:10:41 GMT